Regional Weather Roundup
Issued by NWS Cleveland, OH

Home | Current Version | Previous Version | Graphics & Text | Print | Product List | Glossary On
Versions: 1 2 3 4 5 6 7 8 9 10 11 12 13 14 15 16 17 18 19 20 21 22 23 24 25 26 27 28 29 30 31 32 33 34 35 36 37 38 39 40 41 42 43 44 45 46 47 48 49 50
000
ASUS41 KCLE 310600
RWRCLE
OHIO REGIONAL WEATHER ROUNDUP
NATIONAL WEATHER SERVICE WILMINGTON, OH
200 AM EDT SUN AUG 31 2014

NOTE: "FAIR" INDICATES FEW OR NO CLOUDS BELOW 12,000 FEET WITH NO
SIGNIFICANT WEATHER AND/OR OBSTRUCTIONS TO VISIBILITY.

OHZ001>008-015>018-024>027-034-035-043-044-310700-
   NORTHWEST OHIO

CITY           SKY/WX    TMP DP  RH WIND       PRES   REMARKS
DEFIANCE       MOCLDY    75  68  78 SW8       29.97S
FINDLAY        MOCLDY    75  68  78 SW12      29.99R
TOLEDO EXPRESS FAIR      74  69  85 SW9       29.96S
TOLEDO METCALF FAIR      76  68  76 SW12      29.97S
LIMA           FAIR      74  67  78 SW12      30.00S
$$

OHZ009>014-019>023-028>033-038-089-310700-
   NORTHEAST OHIO

CITY           SKY/WX    TMP DP  RH WIND       PRES   REMARKS
CLE-HOPKINS    MOCLDY    77  65  66 SW10      30.02R
CLE-LAKEFRONT  MOCLDY    79  65  62 SW20      29.97S
CUY CO. ARPT   NOT AVBL
LORAIN-ELYRIA  FAIR      78  66  66 SW10      30.00S
ASHTABULA      CLOUDY    76  66  71 SW7       30.01S
AKRON-CANTON   LGT RAIN  76  64  66 W12       30.06R
WOOSTER        NOT AVBL
MANSFIELD      MOCLDY    73  66  78 SW17      30.04S
YOUNGSTOWN     LGT RAIN  75  67  76 SW9       30.05R
$$

OHZ042-051>053-060>062-070>072-077>081-310700-
  SOUTHWEST OHIO

CITY           SKY/WX    TMP DP  RH WIND       PRES   REMARKS
CINC-COVINGTON CLOUDY    72  69  90 SW8       30.06R FOG
CINC-LUNKEN    MOCLDY    70  69  97 CALM      30.06R FOG
HAMILTON       FAIR      71  70  96 CALM      30.05S
DAYTON         NOT AVBL
WRIGHT-PAT AFB FAIR      72  69  90 SW7       30.04R
DAYTON GENERAL FAIR      72  69  90 S7        30.04S
WILMINGTON     FAIR      69  67  93 S6        30.06S FOG
$$

OHZ036-037-039>041-045>050-054>059-063>069-073>076-082>088-310700-
  CENTRAL AND SOUTHEAST OHIO

CITY           SKY/WX    TMP DP  RH WIND       PRES   REMARKS
COLUMBUS       RAIN      73  69  87 SW9       30.06S
OSU AIRPORT    CLOUDY    71  69  93 S5        30.04F
BOLTON FIELD   NOT AVBL
RICKENBACK AFB NOT AVBL
NEWARK         LGT RAIN  72  68  87 W7        30.06R FOG
MARION         MOCLDY    73  66  78 S12       30.03S
LANCASTER      HVY RAIN  71  68  90 NW5       30.06R FOG
ZANESVILLE     CLOUDY    74  67  78 CALM      30.04F
NEW PHILLY     LGT RAIN  74  68  81 NW7       30.05S
$$


USA.gov is the U.S. government's official web portal to all federal, state and local government web resources and services.